C/2018 L2 ( ATLAS )

Japanese version
Home page
Updated on June 18, 2018

---------------------------------------------------------------------

* Profile

Discovery Date June 6, 2018
Magnitude 15.6 mag
Discoverer Asteroid Terrestrial-impact Last Alert System (ATLAS) search program

* Orbital Elements

T 2018 Dec. 2.39688 TT                                  MPCW
q   1.7177566            (2000.0)            P               Q
                   Peri.   55.98493     +0.02581876     +0.56687526
                   Node   242.90713     -0.89357649     +0.38235424
e   1.0            Incl.   67.65137     +0.44816787     +0.72969698
From 50 observations 2018 June 4-8.

* Finding Charts

* Magnitudes Graph

        m1 = 10.0 + 5 log d + 10.0 log r

---------------------------------------------------------------------

The orbital elements are published on M.P.E.C. 2018-L37.
The charts are made with StellaNavigator Ver.10 (AstroArts).
The magnitudes graphs are made with Comet for Windows.

---------------------------------------------------------------------

Copyright(C) Seiichi Yoshida (comet@aerith.net). All rights reserved.